Regional Weather Roundup
Issued by NWS

Home | Current Version | Previous Version | Graphics & Text | Print | Product List | Glossary On
Versions: 1 2 3 4 5 6 7 8 9 10 11 12 13 14 15 16 17 18 19 20 21 22 23 24 25 26 27 28 29 30 31 32 33 34 35 36 37 38 39 40 41 42 43 44 45 46 47 48 49 50
041
ASUS43 KLMK 211402
RWRKY
KENTUCKY REGIONAL WEATHER ROUNDUP
NATIONAL WEATHER SERVICE LOUISVILLE KY
1000 AM EDT MON AUG 21 2017

NOTE "FAIR" INDICATES FEW OR NO CLOUDS BELOW 12,000 FEET
WITH NO SIGNIFICANT WEATHER AND/OR OBSTRUCTIONS TO VISIBILITY.

KYZ001>023-026-027-061>063-070>075-211500-
WESTERN AND SOUTH CENTRAL KENTUCKY

CITY           SKY/WX    TMP DP  RH WIND       PRES   REMARKS
PADUCAH        SUNNY     83  73  72 CALM      30.14R
HENDERSON      SUNNY     80  72  76 CALM      30.14F
OWENSBORO      MOSUNNY   80  71  74 S5        30.16R
HOPKINSVILLE   NOT AVBL
BOWLING GREEN  SUNNY     81  70  69 CALM      30.18F
GLASGOW        SUNNY     81  69  68 CALM      30.19S
$$

KYZ024-025-028>034-038-045-046-053-211500-
NORTH CENTRAL KENTUCKY

CITY           SKY/WX    TMP DP  RH WIND       PRES   REMARKS
LOUISVILLE/SDF PTSUNNY   82  69  64 SE6       30.16S
LOUISVILLE/LOU SUNNY     82  70  66 S8        30.16F
FORT KNOX      NOT AVBL
$$

KYZ035>037-039>044-047>052-055>060-089>105-211500-
NORTHEAST KENTUCKY

CITY           SKY/WX    TMP DP  RH WIND       PRES   REMARKS
LEXINGTON      SUNNY     81  68  64 S7        30.20S
COVINGTON      MOSUNNY   81  70  69 SW7       30.17R
FRANKFORT      SUNNY     81  67  62 S6        30.17F
$$

KYZ054-064>069-076>088-106>120-211500-
SOUTHEAST KENTUCKY

CITY           SKY/WX    TMP DP  RH WIND       PRES   REMARKS
JACKSON        SUNNY     76  69  79 CALM      30.24S
LONDON         SUNNY     76  69  79 S3        30.24S
SOMERSET       NOT AVBL
MIDDLESBORO    PTSUNNY   70  69  97 CALM      30.26S
MONTICELLO     SUNNY     81  71  71 NE8       30.23F
$$





USA.gov is the U.S. government's official web portal to all federal, state and local government web resources and services.